{"data":{"norad_id":64233,"intl_designator":"2025-119A","name":"STARLINK-11686 [DTC]","alt_names":[],"object_type":"PAYLOAD","status":"ACTIVE","operator":null,"country":"US","launch_date":"2025-06-03","launch_site_code":"AFETR","launch_vehicle":null,"mission":null,"orbit_class":"UNKNOWN","rcs_meters":null,"size_class":null,"mass_kg":null,"dimensions":null,"purposes":["comms"],"wikipedia_slug":null,"has_3d_model":false,"image_url":null,"decayed_at":null,"tle_current":{"epoch":"2026-09-20T00:20:33.806688Z","epoch_age_seconds":179613,"freshness":"STALE","line1":"1 64233U 25119A   26263.01428017  .00155466  00000+0  11921-2 0  9990","line2":"2 64233  43.0018 118.0850 0001819 269.6039  90.4620 15.70848256 75800","mean_motion":15.70848256,"eccentricity":0.0001819,"inclination_deg":43.0018,"raan_deg":118.085,"arg_perigee_deg":269.6039,"mean_anomaly_deg":90.462,"bstar":0.0011921,"rev_number":7580,"period_min":91.670216680687,"perigee_km":355.24643919909,"apogee_km":357.69648975847,"semimajor_km":6734.6084644788,"source":"CELESTRAK","updated_at":"2026-09-21T09:00:35.275913Z"}}}